Flag for France Weather past 2 weeks in Strasbourg, France

Now
43 °F

Clear.


Feels Like: 37 °F
Forecast: 38 / 44 °F
Wind: 10 mph from West

Location: Strasbourg Airport

Current Time: Dec 21, 2014 at 2:40:12 AM

Latest Report: Dec 21, 2014 at 2:00 AM


Visibility: N/A

Pressure: 30.48 "Hg

Humidity: 81%

Dew point: 37 °F

Location of StrasbourgLocation

Historic Weather in Strasbourg — Graph

°F

Strasbourg temperature yesterday

Maximum temperature yesterday: 50 °F (at 12:00 AM)
Minimum temperature yesterday: 37 °F (at 9:00 AM)
Average temperature yesterday: 44 °F

Past Weeks' High & Low Weather Summary

 TemperatureHumidityPressure
High57 °F (Dec 18, 8:00 PM)100% (Dec 6, 11:30 AM)30.48 "Hg (Dec 6, 11:30 AM)
Low28 °F (Dec 10, 12:30 AM)44% (Dec 15, 2:30 PM)29.74 "Hg (Dec 12, 5:00 PM)
Average44 °F85%30.09 "Hg
* Reported Dec 6 1:00 AM — Dec 21 1:30 AM, Strasbourg, Weather by CustomWeather, © 2014

Note: Actual official high and low records may vary slightly from our data, if they occured in-between our weather recording intervals... More about our weather records

Advertising

Strasbourg weather history for previous 24 hours

 ConditionsComfort  
Time TempWeatherWind HumidityBarometerVisibility
1:30 AM
Dec 21
43 °FClear.9 mph81%30.48 "HgN/A
1:00 AM39 °FClear.8 mph87%30.45 "HgN/A
12:30 AM37 °FClear.7 mph93%30.45 "HgN/A
12:00 AM39 °FPassing clouds.6 mph87%30.45 "HgN/A
11:30 PM
Dec 20
39 °FClear.8 mph87%30.45 "HgN/A
11:00 PM41 °FQuite cool.13 mph87%30.42 "HgN/A
10:30 PM43 °FPassing clouds.9 mph81%30.42 "HgN/A
10:00 PM43 °FOvercast.8 mph81%30.42 "HgN/A
9:30 PM43 °FMostly cloudy.12 mph81%30.42 "HgN/A
9:00 PM43 °FOvercast.10 mph87%30.42 "HgN/A
8:30 PM43 °FMostly cloudy.10 mph81%30.39 "HgN/A
8:00 PM43 °FPassing clouds.9 mph87%30.39 "HgN/A
7:30 PM43 °FLight rain. Passing clouds.9 mph87%30.39 "HgN/A
7:00 PM43 °FDrizzle. Mostly cloudy.7 mph81%30.36 "HgN/A
6:30 PM45 °FLight rain. Mostly cloudy.12 mph76%30.33 "HgN/A
6:00 PM45 °FMostly cloudy.12 mph76%30.33 "HgN/A
5:30 PM45 °FMostly cloudy.12 mph76%30.33 "HgN/A
5:00 PM45 °FMostly cloudy.12 mph76%30.33 "HgN/A
4:30 PM45 °FMostly cloudy.13 mph71%30.30 "HgN/A
4:00 PM45 °FMostly cloudy.12 mph71%30.30 "HgN/A
3:30 PM45 °FOvercast.13 mph71%30.30 "HgN/A
3:00 PM45 °FOvercast.15 mph71%30.30 "HgN/A
2:30 PM46 °FOvercast.14 mph66%30.30 "HgN/A
2:00 PM46 °FOvercast.14 mph62%30.30 "HgN/A
1:30 PM46 °FOvercast.15 mph66%30.30 "HgN/A
1:00 PM46 °FOvercast.10 mph62%30.33 "HgN/A
12:30 PM45 °FOvercast.14 mph71%30.33 "HgN/A
12:00 PM45 °FOvercast.14 mph71%30.33 "HgN/A
11:30 AM46 °FOvercast.13 mph66%30.33 "HgN/A
11:00 AM46 °FOvercast.14 mph62%30.36 "HgN/A
10:30 AM45 °FOvercast.6 mph76%30.36 "HgN/A
10:00 AM43 °FPartly sunny.7 mph81%30.36 "HgN/A
9:30 AM41 °FPartly sunny.8 mph81%30.36 "HgN/A
9:00 AM37 °FPassing clouds.5 mph87%30.36 "HgN/A
8:30 AM39 °FClear.6 mph81%30.36 "HgN/A
8:00 AM39 °FPassing clouds.5 mph81%30.33 "HgN/A
7:30 AM39 °FOvercast.5 mph81%30.33 "HgN/A
7:00 AM39 °FPassing clouds.5 mph81%30.33 "HgN/A
6:30 AM39 °FPassing clouds.3 mph81%30.33 "HgN/A
6:00 AM39 °FPassing clouds.5 mph81%30.33 "HgN/A
5:30 AM43 °FPassing clouds.7 mph71%30.33 "HgN/A
5:00 AM43 °FPassing clouds.9 mph71%30.33 "HgN/A
4:30 AM43 °FPassing clouds.9 mph76%30.33 "HgN/A
4:00 AM45 °FPassing clouds.3 mph71%30.33 "HgN/A
3:30 AM45 °FPassing clouds.12 mph71%30.30 "HgN/A
3:00 AM46 °FPassing clouds.7 mph66%30.30 "HgN/A
2:30 AM46 °FPassing clouds.9 mph71%30.27 "HgN/A
2:00 AM48 °FPassing clouds.14 mph71%30.27 "HgN/A
Weather by CustomWeather, © 2014

See weather overviewHow to use our weather pages